Torna al catalogo

STARLINK-31722

AttivoComunicazioniVLEO
NORAD 59549·PAYLOAD·🇺🇸 United States

Lanciato Apr 18, 2024 da Cape Canaveral Space Force Station

Loading…

Prossimi Passaggi (prossime 24 ore)

TLE

AggiornatoSource: CelesTrak SupGP

Epoca: Sep 14, 2026, 22:22 UTC

1 59549C 24074R   26257.93243056 -.00018602  00000+0 -67377-3 0  2571
2 59549  43.0019 354.3715 0001525 267.0349   9.2159 15.27588097    12

Traccia STARLINK-31722 in tempo reale con AllMySat

Download on the App Store